Simultaneous Nadir Overpasses (SNOs) Predictions

Prediction of SNOs between AQUA and METOP-C Satellite Orbit:

Table of predicted SNOs for the next 14.0 days since TLE Epoch: 2/1/2025
Index Date (AQUA) Time (AQUA) Lat,Lon (AQUA) SZA (AQUA ) Date (METOP-C) Time (METOP-C) Lat,Lon (METOP-C) SZA (METOP-C ) Distance(km) Time Diff (sec)
1 02/03/2025 15:13:31 -76.14, 132.72 87.61 02/03/2025 15:12:51 -76.15, 132.67 87.59 2.35 40
2 02/03/2025 16:02:52 76.19, -59.78 92.44 02/03/2025 16:03:30 76.22, -59.78 92.47 3.23 38
3 02/06/2025 04:03:01 -76.15, -59.64 88.37 02/06/2025 04:01:48 -76.09, -59.79 88.42 7.92 73
4 02/06/2025 04:52:22 76.21, 107.84 91.69 02/06/2025 04:52:26 76.19, 107.91 91.67 2.43 4
5 02/06/2025 05:41:51 -76.72, -86.23 87.80 02/06/2025 05:42:56 -76.70, -82.91 87.84 85.04 65
6 02/08/2025 17:41:49 76.18, -84.38 90.86 02/08/2025 17:41:21 76.20, -84.29 90.89 3.21 28
7 02/08/2025 18:31:08 -76.21, 83.21 89.13 02/08/2025 18:32:02 -76.22, 83.09 89.12 3.18 54
8 02/11/2025 06:31:14 76.16, 83.41 90.01 02/11/2025 06:30:17 76.16, 83.31 90.01 2.79 57
9 02/11/2025 07:20:34 -76.23,-109.15 89.93 02/11/2025 07:20:57 -76.22,-109.13 89.94 0.88 23
10 02/13/2025 19:20:28 75.69,-107.42 88.69 02/13/2025 19:19:23 75.63,-110.66 88.66 89.33 65
11 02/13/2025 20:09:57 -76.20, 58.66 90.81 02/13/2025 20:09:52 -76.21, 58.61 90.79 1.86 5



Historial Predications of SNOs between AQUA and METOP-C
